Погода в Ватерлоо

Канада     43°28′00″N   80°30′47″W
темп.,
°C
ветер,
м/с
пор.,
м/с
влажн.,
%
обл.,
%
осадки,
мм/ч
давл.,
гПа
погр.,
м
19 июня, сб
сб1923:00+18з36961 0.9 1006127
02:00+17зсз48930 0.9 1007121
05:00+14з33900 0.0 100745
08:00+17зсз4883100 0.0 1008209
11:00+23з611614 0.0 1007775
14:00+25з81154100 0.0 10071452
17:00+20зсз367198 0.0 1006172
20:00+19зсз35770 0.0 1007164
20 июня, вс
вс2023:00+14сз228942 0.0 100823
02:00+13сз22852 0.0 100811
05:00+12с117639 0.0 100810
08:00+16св22680 0.0 1009119
11:00+21ююв336220 0.0 1008717
14:00+25юз355485 0.0 10061749
17:00+26юз556190 0.0 10051657
20:00+22ююз598292 0.2 1005306
21 июня, пн
пн2123:00+19ю51198100 1.4 1003257
02:00+20юз61698100 14.0 1001997
05:00+20ююз81697100 2.6 999678
08:00+20ююз81598100 6.8 998818
11:00+21юз91694100 1.7 9981104
14:00+20з10137362 2.3 10001191
17:00+19зсз9126838 0.1 10031242
20:00+14зсз71181100 0.1 1007952
22 июня, вт
вт2223:00+10сз61181100 0.0 1009758
02:00+10сз6971100 0.0 1010942
05:00+9сз5874100 0.0 1011606
08:00+9ссз577316 0.0 1013782
11:00+13ссз56585 0.0 10141287
14:00+16сз564911 0.0 10151901
17:00+15сз67495 0.0 10161529
20:00+13зсз23690 0.0 101778
23 июня, ср
ср2323:00+9юз117110 0.0 101810
02:00+8юз357216 0.0 101977
05:00+8юз35814 0.0 102086
08:00+13юз37755 0.0 1021275
11:00+18ююз56615 0.0 10211352
14:00+20ююз6655100 0.0 10201577
17:00+19ююз565993 0.0 10211099
20:00+16ю3671100 0.0 1021180